When you browse on this site, cookies collect data to enhance your experience and personalize the content and advertising you see.
Visit our Privacy Policy to learn more. By continuing to use the site, you agree to this use of cookies and data.
  • en Suisse
  • Liste des pays
  • À 7 jours
  • Température de l'eau
  • Carte satellitaire
  • Carte météo
  • Widgets météo
  • user-avatar
    Se connecter

    Météo par heure à Kozub

    Ce jour, 22 Juillet, Lundi

    Heure Température Précipitation Vent Pression Humidité
    00:00 +18°C° 0 mm 2 m/s 750 mmHg 79%
    01:00 +18°C° 0 mm 2 m/s 751 mmHg 83%
    02:00 +17°C° 0 mm 2 m/s 751 mmHg 85%
    03:00 +17°C° 0 mm 2 m/s 751 mmHg 88%
    04:00 +18°C° 0 mm 1 m/s 751 mmHg 90%
    05:00 +19°C° 0 mm 1 m/s 751 mmHg 85%
    06:00 +20°C° 0 mm 1 m/s 752 mmHg 80%
    07:00 +21°C° 0 mm 1 m/s 752 mmHg 76%
    08:00 +21°C° 0.1 mm 2 m/s 752 mmHg 69%
    09:00 +24°C° 0.1 mm 2 m/s 752 mmHg 63%
    10:00 +25°C° 0.1 mm 3 m/s 752 mmHg 57%
    11:00 +25°C° 0.4 mm 3 m/s 752 mmHg 57%
    12:00 +25°C° 0.4 mm 4 m/s 752 mmHg 57%
    13:00 +25°C° 0.4 mm 4 m/s 751 mmHg 58%
    14:00 +25°C° 0.1 mm 4 m/s 751 mmHg 57%
    15:00 +26°C° 0.1 mm 4 m/s 751 mmHg 55%
    16:00 +26°C° 0.1 mm 4 m/s 751 mmHg 54%
    17:00 +25°C° 0 mm 4 m/s 751 mmHg 59%
    18:00 +24°C° 0 mm 3 m/s 751 mmHg 63%
    19:00 +22°C° 0 mm 3 m/s 751 mmHg 68%
    20:00 +21°C° 0 mm 2 m/s 751 mmHg 68%
    21:00 +20°C° 0 mm 2 m/s 751 mmHg 68%
    22:00 +19°C° 0 mm 2 m/s 751 mmHg 69%
    23:00 +19°C° 0 mm 2 m/s 751 mmHg 67%

    Demain, 23 Juillet, Mardi

    Heure Température Précipitation Vent Pression Humidité
    00:00 +20°C° 0 mm 1 m/s 751 mmHg 66%
    01:00 +20°C° 0 mm 1 m/s 751 mmHg 64%
    02:00 +18°C° 0 mm 2 m/s 751 mmHg 69%
    03:00 +18°C° 0 mm 2 m/s 751 mmHg 73%
    04:00 +18°C° 0 mm 3 m/s 751 mmHg 78%
    05:00 +17°C° 0.1 mm 3 m/s 751 mmHg 80%
    06:00 +17°C° 0.1 mm 3 m/s 751 mmHg 82%
    07:00 +16°C° 0.1 mm 3 m/s 751 mmHg 84%
    08:00 +16°C° 0 mm 2 m/s 751 mmHg 84%
    09:00 +17°C° 0 mm 2 m/s 751 mmHg 84%
    10:00 +18°C° 0 mm 1 m/s 751 mmHg 85%
    11:00 +19°C° 0 mm 1 m/s 751 mmHg 82%
    12:00 +19°C° 0 mm 1 m/s 751 mmHg 79%
    13:00 +20°C° 0 mm 1 m/s 750 mmHg 77%
    14:00 +20°C° 0 mm 1 m/s 750 mmHg 77%
    15:00 +21°C° 0 mm 1 m/s 750 mmHg 78%
    16:00 +21°C° 0 mm 1 m/s 750 mmHg 78%
    17:00 +21°C° 0 mm 1 m/s 750 mmHg 80%
    18:00 +21°C° 0 mm 1 m/s 750 mmHg 82%
    19:00 +21°C° 0 mm 1 m/s 749 mmHg 83%
    20:00 +20°C° 0 mm 1 m/s 750 mmHg 85%
    21:00 +20°C° 0 mm 1 m/s 750 mmHg 86%
    22:00 +19°C° 0 mm 1 m/s 750 mmHg 87%
    23:00 +19°C° 0 mm 1 m/s 750 mmHg 86%

    Après-demain, 24 Juillet, Mercredi

    Heure Température Précipitation Vent Pression Humidité
    00:00 +20°C° 0 mm 1 m/s 750 mmHg 86%
    01:00 +20°C° 0 mm 1 m/s 749 mmHg 85%
    02:00 +19°C° 0 mm 1 m/s 749 mmHg 86%
    03:00 +19°C° 0 mm 1 m/s 749 mmHg 88%
    04:00 +19°C° 0 mm 1 m/s 749 mmHg 90%
    05:00 +20°C° 0 mm 1 m/s 749 mmHg 86%
    06:00 +20°C° 0 mm 2 m/s 749 mmHg 83%
    07:00 +21°C° 0 mm 2 m/s 749 mmHg 79%
    08:00 +24°C° 0 mm 2 m/s 749 mmHg 73%
    09:00 +25°C° 0 mm 3 m/s 749 mmHg 67%
    10:00 +26°C° 0 mm 3 m/s 749 mmHg 61%
    11:00 +27°C° 0 mm 3 m/s 749 mmHg 59%
    12:00 +27°C° 0 mm 3 m/s 749 mmHg 57%
    13:00 +27°C° 0 mm 3 m/s 749 mmHg 55%
    14:00 +27°C° 0 mm 3 m/s 749 mmHg 55%
    15:00 +28°C° 0 mm 3 m/s 749 mmHg 54%
    16:00 +28°C° 0 mm 3 m/s 749 mmHg 54%
    17:00 +27°C° 0 mm 2 m/s 749 mmHg 58%
    18:00 +26°C° 0 mm 2 m/s 749 mmHg 63%
    19:00 +25°C° 0 mm 1 m/s 749 mmHg 67%
    20:00 +24°C° 0 mm 1 m/s 749 mmHg 70%
    21:00 +23°C° 0 mm 1 m/s 749 mmHg 72%
    22:00 +22°C° 0 mm 1 m/s 750 mmHg 74%
    23:00 +21°C° 0 mm 1 m/s 750 mmHg 76%

    25 Juillet, Jeudi

    Heure Température Précipitation Vent Pression Humidité
    00:00 +21°C° 0 mm 1 m/s 750 mmHg 78%
    01:00 +21°C° 0 mm 1 m/s 750 mmHg 79%
    02:00 +18°C° 0 mm 0 m/s 750 mmHg 81%
    03:00 +18°C° 0 mm 0 m/s 750 mmHg 82%
    04:00 +18°C° 0 mm 0 m/s 750 mmHg 84%
    05:00 +19°C° 0 mm 0 m/s 750 mmHg 78%
    06:00 +21°C° 0 mm 0 m/s 750 mmHg 73%
    07:00 +22°C° 0 mm 0 m/s 750 mmHg 68%
    08:00 +25°C° 0 mm 1 m/s 750 mmHg 64%
    09:00 +26°C° 0 mm 1 m/s 750 mmHg 60%
    10:00 +27°C° 0 mm 2 m/s 750 mmHg 56%
    11:00 +28°C° 0 mm 2 m/s 750 mmHg 54%
    12:00 +28°C° 0 mm 2 m/s 750 mmHg 51%
    13:00 +29°C° 0 mm 2 m/s 750 mmHg 49%
    14:00 +29°C° 0 mm 2 m/s 750 mmHg 49%
    15:00 +29°C° 0 mm 2 m/s 749 mmHg 48%
    16:00 +29°C° 0 mm 2 m/s 749 mmHg 47%
    17:00 +28°C° 0 mm 2 m/s 749 mmHg 52%
    18:00 +27°C° 0 mm 2 m/s 749 mmHg 56%
    19:00 +26°C° 0 mm 2 m/s 749 mmHg 61%
    20:00 +25°C° 0 mm 3 m/s 749 mmHg 63%
    21:00 +24°C° 0 mm 3 m/s 750 mmHg 65%
    22:00 +22°C° 0 mm 3 m/s 750 mmHg 68%
    23:00 +21°C° 0 mm 3 m/s 750 mmHg 70%

    26 Juillet, Vendredi

    Heure Température Précipitation Vent Pression Humidité
    00:00 +20°C° 0 mm 3 m/s 750 mmHg 73%
    01:00 +20°C° 0 mm 3 m/s 750 mmHg 76%
    02:00 +19°C° 0 mm 3 m/s 750 mmHg 78%
    03:00 +19°C° 0 mm 3 m/s 749 mmHg 80%
    04:00 +18°C° 0 mm 3 m/s 749 mmHg 82%
    05:00 +20°C° 0 mm 4 m/s 749 mmHg 77%
    06:00 +21°C° 0 mm 4 m/s 749 mmHg 72%
    07:00 +23°C° 0 mm 4 m/s 749 mmHg 67%
    08:00 +25°C° 0 mm 5 m/s 749 mmHg 62%
    09:00 +26°C° 0 mm 5 m/s 749 mmHg 56%
    10:00 +28°C° 0 mm 5 m/s 749 mmHg 50%
    11:00 +29°C° 0 mm 5 m/s 749 mmHg 49%
    12:00 +29°C° 0 mm 5 m/s 748 mmHg 48%
    13:00 +30°C° 0 mm 6 m/s 748 mmHg 47%
    14:00 +30°C° 0 mm 6 m/s 748 mmHg 47%
    15:00 +30°C° 0 mm 6 m/s 747 mmHg 48%
    16:00 +32°C° 0 mm 6 m/s 747 mmHg 48%
    17:00 +29°C° 0 mm 5 m/s 747 mmHg 53%
    18:00 +28°C° 0 mm 4 m/s 746 mmHg 58%
    19:00 +27°C° 0 mm 4 m/s 746 mmHg 64%
    20:00 +26°C° 0 mm 4 m/s 746 mmHg 66%
    21:00 +25°C° 0 mm 4 m/s 746 mmHg 69%
    22:00 +23°C° 0 mm 4 m/s 747 mmHg 72%
    23:00 +22°C° 0 mm 4 m/s 746 mmHg 74%

    27 Juillet, Samedi

    Heure Température Précipitation Vent Pression Humidité
    00:00 +22°C° 0 mm 4 m/s 746 mmHg 77%
    01:00 +21°C° 0 mm 4 m/s 746 mmHg 79%
    02:00 +21°C° 0 mm 4 m/s 746 mmHg 82%
    03:00 +20°C° 0 mm 4 m/s 746 mmHg 85%
    04:00 +20°C° 0 mm 4 m/s 745 mmHg 88%
    05:00 +21°C° 0 mm 5 m/s 745 mmHg 81%
    06:00 +22°C° 0 mm 5 m/s 745 mmHg 75%
    07:00 +24°C° 0 mm 6 m/s 745 mmHg 68%
    08:00 +26°C° 0 mm 6 m/s 745 mmHg 62%
    09:00 +28°C° 0 mm 6 m/s 745 mmHg 56%
    10:00 +29°C° 0 mm 6 m/s 745 mmHg 49%
    11:00 +30°C° 0 mm 6 m/s 744 mmHg 47%
    12:00 +32°C° 0 mm 6 m/s 744 mmHg 44%
    13:00 +33°C° 0 mm 6 m/s 744 mmHg 41%
    14:00 +33°C° 0 mm 6 m/s 743 mmHg 42%
    15:00 +33°C° 0 mm 6 m/s 743 mmHg 43%
    16:00 +32°C° 0 mm 6 m/s 742 mmHg 43%
    17:00 +30°C° 0 mm 6 m/s 742 mmHg 48%
    18:00 +29°C° 0 mm 5 m/s 742 mmHg 53%
    19:00 +27°C° 0 mm 4 m/s 742 mmHg 58%
    20:00 +26°C° 0.2 mm 4 m/s 742 mmHg 62%
    21:00 +25°C° 0.2 mm 4 m/s 742 mmHg 66%
    22:00 +23°C° 0.2 mm 4 m/s 742 mmHg 71%
    23:00 +23°C° 0.1 mm 4 m/s 742 mmHg 74%
    Voir plus